Location: Fort Wayne
(41.1310°N, 85.1290°W)
Time: 11:26:16
(UTC-04:00)

Courier 1B Rocket - All Passes

Search period start: 17 August 2017 00:00
Search period end: 27 August 2017 00:00
Orbit: 920 x 1202 km, 28.2° (Epoch: 16 August)

Date Brightness Start Highest point End Pass type
(mag) Time Alt. Az. Time Alt. Az. Time Alt. Az.
17 Aug - 15:06:52 10° S 15:10:17 13° SSE 15:13:43 10° SE daylight
17 Aug - 16:56:44 10° SW 17:02:56 26° SSE 17:09:05 10° ESE daylight
17 Aug - 18:49:12 10° WSW 18:55:50 31° S 19:02:17 10° SE daylight
17 Aug - 20:42:58 10° WSW 20:48:38 23° SSW 20:54:06 10° SSE daylight
18 Aug - 15:56:18 10° SSW 16:01:59 22° SSE 16:07:42 10° ESE daylight
18 Aug - 17:48:11 10° SW 17:54:50 31° S 18:01:23 10° ESE daylight
18 Aug - 19:41:30 10° WSW 19:47:44 27° SSW 19:53:47 10° SE daylight
18 Aug - 21:36:48 10° SW 21:40:18 14° SSW 21:43:43 10° S visible
19 Aug - 14:56:16 10° SSW 15:01:05 18° SSE 15:05:59 10° ESE daylight
19 Aug - 16:47:21 10° SW 16:53:50 29° S 17:00:20 10° ESE daylight
19 Aug - 18:40:14 10° WSW 18:46:46 30° S 18:53:12 10° SE daylight
19 Aug - 20:34:31 10° WSW 20:39:30 19° SSW 20:44:22 10° SSE daylight
20 Aug - 13:56:59 10° S 14:00:15 13° SSE 14:03:35 10° SE daylight
20 Aug - 15:46:43 10° SW 15:52:51 26° SSE 15:59:05 10° ESE daylight
20 Aug - 17:39:07 10° WSW 17:45:46 31° S 17:52:23 10° ESE daylight
20 Aug - 19:32:47 10° WSW 19:38:37 23° SSW 19:44:20 10° SSE daylight
21 Aug - 14:46:23 10° SSW 14:51:56 22° SSE 14:57:37 10° ESE daylight
21 Aug - 16:38:10 10° SW 16:44:45 31° S 16:51:24 10° ESE daylight
21 Aug - 18:31:22 10° WSW 18:37:41 27° SSW 18:43:55 10° SE daylight
21 Aug - 20:26:33 10° SW 20:30:19 14° SSW 20:34:01 10° S daylight
22 Aug - 13:46:28 10° SSW 13:51:04 18° SSE 13:55:48 10° ESE daylight
22 Aug - 15:37:25 10° SW 15:43:46 29° S 15:50:16 10° ESE daylight
22 Aug - 17:30:11 10° WSW 17:36:41 30° S 17:43:14 10° SE daylight
22 Aug - 19:24:21 10° WSW 19:29:28 19° SSW 19:34:30 10° SSE daylight
23 Aug - 12:47:21 10° S 12:50:17 13° SSE 12:53:17 10° SE daylight
23 Aug - 14:36:54 10° SW 14:42:49 26° SSE 14:48:56 10° ESE daylight
23 Aug - 16:29:10 10° WSW 16:35:41 31° S 16:42:21 10° ESE daylight
23 Aug - 18:22:43 10° WSW 18:28:33 23° SSW 18:34:23 10° SSE daylight
24 Aug - 13:36:39 10° SSW 13:41:55 22° SSE 13:47:25 10° ESE daylight
24 Aug - 15:28:19 10° SW 15:34:41 31° S 15:41:17 10° ESE daylight
24 Aug - 17:21:24 10° WSW 17:27:36 27° SSW 17:33:53 10° SE daylight
24 Aug - 19:16:28 10° SW 19:20:17 14° SSW 19:24:05 10° S daylight
25 Aug - 12:36:50 10° SSW 12:41:07 17° SSE 12:45:34 10° ESE daylight
25 Aug - 14:27:40 10° SW 14:33:44 28° S 14:40:05 10° ESE daylight
25 Aug - 16:20:18 10° WSW 16:26:37 29° S 16:33:07 10° SE daylight
25 Aug - 18:14:22 10° WSW 18:19:25 19° SSW 18:24:28 10° SSE daylight
26 Aug - 11:37:56 10° S 11:40:24 12° SSE 11:42:54 10° SE daylight
26 Aug - 13:27:14 10° SW 13:32:50 25° SSE 13:38:43 10° ESE daylight
26 Aug - 15:19:22 10° WSW 15:25:39 30° S 15:32:10 10° SE daylight
26 Aug - 17:12:50 10° WSW 17:18:29 23° SSW 17:24:16 10° SSE daylight
